Theta_e
319 319 319 318 318 318 318 318 318 317 317 317 316 316 316 315 316 316 316 320 332 345 348 347 357 357 353 358 350 351 356 358 357 356 356 352 355 354 352 353 351 351 350 348 350
320 320 320 319 319 319 319 319 318 318 317 317 316 316 316 315 316 319 320 319 331 343 351 359 359 354 358 359 351 351 353 356 354 352 354 351 356 356 356 354 355 350 348 348 350
320 320 320 321 320 320 319 319 319 318 318 317 316 316 315 316 318 323 327 319 331 344 348 355 356 357 360 353 354 352 352 352 350 352 350 354 352 352 355 357 353 351 351 351 351
320 320 320 321 321 320 320 319 319 319 318 316 315 315 315 322 325 326 324 319 335 345 343 332 350 355 341 352 353 355 352 350 351 353 349 353 349 356 353 353 350 347 351 351 351
320 319 319 320 321 320 320 320 319 319 318 316 314 315 317 317 316 320 322 323 342 341 329 327 332 334 339 339 344 350 349 349 347 348 350 350 352 352 355 352 348 349 351 351 350
318 318 318 319 320 321 320 320 319 319 318 316 314 314 322 316 318 323 324 325 327 327 327 327 330 333 336 342 346 346 345 342 345 345 348 352 355 353 354 351 348 345 348 347 347
312 314 316 318 320 321 320 320 320 319 317 316 314 317 321 314 321 324 319 320 328 328 327 328 331 333 332 341 343 344 346 348 347 348 351 351 358 358 352 350 347 344 342 343 342
311 312 313 316 320 321 321 320 319 317 316 316 315 321 316 317 319 320 320 322 322 324 326 327 331 331 330 334 343 345 347 351 350 349 347 353 359 353 350 349 347 345 344 343 340
313 313 312 313 318 321 320 319 321 319 317 316 320 319 319 321 322 323 322 322 322 321 323 325 328 329 330 333 334 340 346 350 354 348 348 351 351 351 346 350 349 347 345 344 342
317 316 315 313 317 321 320 323 323 321 320 323 324 316 316 321 323 326 322 323 321 320 322 324 323 326 325 329 335 339 349 349 352 353 352 354 355 351 349 350 350 348 346 345 345
320 320 318 314 315 320 324 322 318 318 323 322 321 317 320 323 326 322 324 319 319 320 321 321 323 323 325 329 332 335 342 347 352 352 347 356 352 350 350 354 350 348 347 345 344
321 320 320 317 314 322 321 320 322 323 319 320 319 320 322 324 325 324 318 318 318 318 322 321 322 323 327 329 331 336 349 357 355 352 352 351 354 351 352 350 352 348 347 345 344
321 320 320 320 319 322 321 323 322 322 319 320 319 321 321 323 324 324 319 317 320 320 321 321 323 324 325 325 328 331 341 355 357 355 351 355 356 351 352 351 349 349 346 345 344
321 320 319 318 319 318 321 322 323 321 318 321 322 322 321 322 324 324 319 319 319 319 320 321 322 324 324 325 325 325 333 349 355 353 346 351 354 347 348 350 348 348 348 348 344
320 320 319 316 317 317 321 323 324 319 321 327 323 322 320 320 320 321 318 318 318 320 319 321 324 324 324 324 324 325 340 350 351 348 344 348 349 345 347 348 346 346 345 346 346
319 320 318 317 316 318 322 324 320 320 320 325 322 323 323 321 322 320 321 319 318 319 318 318 320 322 320 322 323 342 338 333 340 338 342 346 344 342 350 346 344 344 344 345 348
319 319 317 317 317 319 323 316 320 325 321 323 322 321 320 321 322 322 322 319 318 318 318 317 318 318 321 321 320 327 325 326 332 340 344 343 344 339 341 342 343 344 345 346 348
319 318 319 317 317 321 321 317 327 323 325 320 320 319 321 320 320 320 319 318 315 315 313 317 318 320 319 319 322 320 320 323 332 336 342 346 347 344 340 341 343 343 343 349 350
318 319 321 324 323 322 314 318 318 322 322 319 318 322 322 322 322 320 318 316 316 314 317 315 317 317 320 320 319 320 322 321 332 342 344 345 346 341 341 342 343 345 344 347 346
319 320 323 325 324 319 315 315 319 319 319 320 321 321 321 322 325 321 319 317 318 315 315 317 317 316 319 320 319 319 319 324 322 343 347 343 349 347 342 342 342 342 342 337 338
321 321 324 324 321 316 316 317 321 319 321 321 319 321 320 323 323 322 322 321 318 318 314 312 315 319 321 319 319 318 319 319 320 325 336 342 341 337 340 340 341 339 338 337 336
316 320 324 324 321 315 321 321 320 321 323 321 319 319 319 321 321 321 325 325 325 319 316 313 312 316 317 317 319 319 321 317 320 322 332 335 337 334 337 338 339 340 338 338 338
315 317 325 324 325 322 321 324 323 325 321 322 322 322 320 320 322 321 324 326 328 332 319 314 313 316 317 316 318 321 322 320 316 318 333 338 336 333 337 337 338 340 338 337 338
317 327 324 320 318 326 330 331 330 328 326 323 322 321 318 320 320 323 325 327 330 333 337 319 310 315 318 318 319 322 320 321 319 320 322 328 329 338 341 340 338 337 337 338 338
316 325 326 329 328 329 328 330 331 332 327 327 326 330 321 320 320 322 326 331 332 334 330 316 317 316 317 317 320 321 324 319 320 319 322 321 334 335 339 339 337 336 338 340 340
322 324 322 325 325 329 328 330 331 332 330 332 333 332 319 324 324 332 331 331 334 330 329 323 327 321 323 327 324 338 342 337 331 347 326 329 331 336 334 333 334 335 344 346 343
320 321 321 325 326 330 330 331 333 330 330 331 333 330 330 330 330 327 326 327 329 331 330 328 327 325 329 326 324 324 342 343 341 344 345 342 337 339 338 337 335 331 336 346 347
Wind_Speed
18 19 19 19 18 18 18 17 18 19 19 20 19 19 20 22 24 15 6 7 13 29 25 22 10 4 6 3 2 2 3 1 3 2 7 2 4 6 6 11 5 10 7 12 30
19 21 22 21 21 20 19 19 19 19 20 19 19 18 19 24 20 9 10 11 14 32 26 17 7 5 1 3 3 3 2 4 5 7 8 2 10 12 4 12 2 4 13 28 29
21 22 23 23 23 23 21 20 20 20 21 19 17 17 19 19 5 6 1 20 22 31 25 20 7 2 3 3 5 5 5 4 5 10 11 10 6 3 15 4 7 16 19 21 27
22 23 25 25 25 24 22 22 21 21 22 18 16 15 16 5 3 2 4 21 26 30 17 11 8 2 5 6 5 3 10 3 5 10 2 7 7 6 4 6 13 16 22 19 20
24 25 27 28 28 26 24 24 23 22 22 17 13 12 5 4 8 3 1 18 25 30 17 8 8 7 4 5 4 5 5 6 5 2 9 8 4 5 4 11 12 18 19 19 17
26 28 29 30 30 28 26 26 25 22 20 13 10 7 2 3 2 3 4 11 14 20 10 9 5 6 4 4 3 2 5 5 1 4 4 6 2 3 5 12 13 18 17 16 17
27 29 31 32 31 30 29 28 26 23 16 9 6 1 2 13 3 8 6 11 10 12 5 13 6 4 5 6 2 1 8 4 2 7 4 6 6 2 7 13 10 10 12 16 16
28 31 32 33 32 31 32 29 28 19 8 5 1 2 7 4 6 18 16 13 12 16 19 19 7 4 4 2 5 4 3 6 11 6 9 6 3 5 2 10 11 11 9 11 15
29 31 34 34 34 33 32 28 16 5 1 2 3 3 9 10 7 10 14 8 3 5 8 13 6 4 4 3 4 5 0 2 3 3 6 5 0 6 5 6 12 12 13 12 9
29 32 35 35 33 35 29 20 9 5 6 3 2 2 6 2 6 16 9 12 3 3 5 6 5 2 3 4 3 3 0 4 3 4 11 7 5 7 8 10 14 13 14 14 13
30 33 35 36 35 29 21 5 5 4 2 7 7 5 10 12 9 3 6 7 3 6 2 4 5 8 9 5 3 5 4 1 2 5 2 6 9 14 12 6 10 15 12 12 14
31 33 35 35 36 13 17 4 7 7 10 10 12 9 14 3 5 5 5 6 5 5 3 5 6 7 5 5 5 7 7 2 3 6 2 8 11 13 6 5 4 9 13 12 10
30 33 35 34 20 9 18 3 20 14 3 8 5 6 6 11 8 8 6 4 4 4 4 6 7 4 3 8 5 4 8 8 7 5 5 4 8 6 5 6 4 6 6 9 12
29 31 34 36 4 23 12 20 27 1 5 7 4 6 5 7 4 9 9 5 1 9 6 6 4 4 4 4 5 5 6 14 15 9 3 2 4 6 5 4 6 9 9 9 14
28 29 31 30 16 9 10 23 19 3 3 2 1 5 2 8 2 0 5 5 8 5 6 8 2 3 4 5 6 8 8 12 12 2 5 3 2 7 4 8 10 14 12 11 14
30 28 32 14 14 14 14 23 3 5 5 6 2 1 3 2 2 4 4 5 3 3 1 8 2 3 7 4 6 6 7 8 4 4 2 3 3 4 4 7 8 6 13 13 14
32 31 29 20 5 11 17 4 5 3 5 7 5 6 3 2 2 2 2 3 5 3 4 7 7 4 4 5 4 5 6 1 1 3 6 5 1 9 10 7 8 6 8 9 8
36 30 18 20 13 5 5 5 2 4 5 4 6 4 2 1 2 1 2 4 3 5 3 5 8 3 5 7 5 7 9 5 5 3 4 1 5 6 8 7 6 8 7 6 7
33 17 14 5 5 10 5 3 6 5 3 9 10 6 4 4 1 3 6 7 8 9 8 6 6 5 5 4 7 2 5 6 8 3 3 3 7 9 8 7 5 4 7 9 10
22 11 8 4 16 7 4 4 4 4 5 4 2 3 6 5 2 3 2 3 7 12 6 6 3 6 6 2 1 6 4 4 3 5 3 4 5 6 7 8 9 9 10 9 8
7 4 8 12 7 5 3 6 6 6 1 3 3 5 6 3 2 2 3 5 2 2 7 6 5 7 2 3 6 3 1 6 5 4 6 2 6 7 9 9 9 8 6 3 6
6 3 3 16 3 2 2 5 4 6 5 8 4 10 6 3 2 2 1 4 7 4 8 10 5 6 12 5 3 3 2 5 5 6 1 4 6 4 9 8 8 10 6 4 5
3 3 2 4 1 2 5 5 5 4 6 4 5 6 4 3 2 3 2 6 8 7 3 6 2 3 10 6 4 2 3 4 3 3 5 6 6 3 6 7 8 10 9 6 6
2 3 4 4 1 3 3 5 6 6 6 5 7 3 5 4 2 3 3 3 7 5 3 6 3 7 8 5 3 1 2 2 4 3 3 6 6 6 7 9 9 8 9 9 9
2 1 0 3 3 3 1 3 7 7 5 4 3 6 3 2 2 1 2 5 5 7 6 4 3 1 0 5 4 4 6 4 4 3 4 6 9 10 12 14 13 10 2 7 8
2 3 4 3 4 5 3 4 4 8 4 7 4 9 4 4 2 1 1 1 1 7 7 6 2 3 2 4 6 5 10 7 7 5 4 6 7 6 14 9 6 7 6 7 8
4 4 2 4 5 2 2 5 6 10 7 6 7 4 6 7 4 6 5 3 4 2 2 3 3 4 3 5 5 6 7 3 4 1 2 5 6 17 19 12 13 7 6 8 9
Wind_Direction
12 7 2 359 355 353 350 345 342 341 337 332 329 329 327 321 315 307 249 227 177 168 171 165 208 259 312 0 143 128 12 211 250 58 304 50 132 140 138 145 178 170 148 139 145
10 6 1 358 355 351 346 342 339 337 336 330 328 329 327 321 319 261 248 200 164 167 167 170 203 154 275 262 158 124 108 240 194 144 244 137 150 151 115 168 247 96 114 135 146
8 4 -0 356 352 347 341 337 335 333 333 329 328 328 328 324 322 254 336 185 173 170 176 183 149 106 282 183 200 178 199 210 195 199 207 164 153 107 131 215 215 157 143 143 150
3 360 357 354 349 343 337 333 332 331 331 327 329 328 329 337 180 321 73 180 170 162 164 202 144 175 254 209 184 192 241 218 305 175 161 149 122 118 167 203 168 149 148 149 159
359 357 354 351 346 340 334 331 329 329 331 325 330 332 345 0 252 276 306 159 168 181 196 194 177 209 230 231 174 257 272 121 279 185 208 92 103 149 144 140 143 141 148 158 165
356 353 351 348 344 338 331 328 327 326 326 321 328 329 41 272 252 291 188 165 180 195 191 200 209 212 302 300 277 21 355 350 345 19 103 98 87 95 134 153 149 144 160 165 172
352 350 348 346 344 336 330 327 325 320 313 308 315 319 149 236 143 135 278 265 244 212 198 222 185 167 323 304 264 340 337 17 13 72 121 94 14 56 147 154 148 165 160 176 183
349 348 346 344 341 335 328 327 323 313 292 284 252 139 247 253 261 251 257 265 243 236 246 260 214 188 177 199 9 13 49 45 357 15 23 51 286 330 122 151 161 180 192 184 186
346 346 344 342 340 333 328 329 335 343 193 165 131 125 268 308 266 264 224 237 224 239 257 266 155 193 50 80 21 2 1 133 128 73 112 52 143 250 283 173 182 194 194 197 220
343 342 341 341 341 333 333 334 16 72 95 84 115 14 284 350 315 308 260 232 248 347 2 48 57 29 55 81 247 257 329 310 119 107 83 70 223 223 236 206 205 198 199 201 209
340 340 339 340 341 336 350 358 11 355 42 248 230 246 289 300 308 242 286 130 103 62 180 3 54 252 257 195 197 229 174 306 102 213 152 192 225 240 184 220 220 206 197 208 212
341 340 337 337 339 347 357 56 110 304 297 247 241 240 246 18 314 296 165 134 132 189 110 19 248 255 254 253 202 240 113 110 30 230 185 236 255 268 126 158 235 217 202 203 212
340 340 337 336 341 359 338 0 335 346 265 294 208 210 205 152 204 259 133 151 139 172 169 176 225 327 277 302 322 249 158 193 166 240 353 9 289 323 105 160 204 219 207 202 211
337 338 338 337 357 336 315 336 337 96 35 276 257 271 147 146 252 216 190 141 81 188 172 234 279 239 318 287 173 299 184 172 157 154 206 87 282 306 294 281 245 219 211 208 202
334 334 333 335 307 309 311 331 339 91 352 314 223 155 173 155 228 180 194 72 169 176 116 237 268 301 272 224 170 261 152 150 156 106 84 15 92 269 31 276 250 239 220 215 209
331 328 325 325 304 296 325 329 4 41 262 332 97 172 141 313 322 357 104 69 149 180 299 235 268 210 232 256 176 147 69 46 55 73 333 241 173 261 222 216 258 237 220 209 206
328 322 313 295 250 310 320 0 46 141 321 341 350 356 241 250 242 165 168 139 168 107 293 323 271 243 206 295 110 74 85 29 313 15 226 267 265 243 226 233 233 221 220 192 174
325 321 307 277 263 271 336 51 115 263 276 340 308 316 97 126 238 114 151 216 222 104 98 169 321 202 166 174 220 177 164 160 204 197 256 211 245 260 189 221 253 205 203 184 203
327 324 307 307 220 180 79 68 211 221 322 342 332 39 352 3 126 54 202 202 211 166 172 162 269 285 221 177 152 210 216 182 105 21 55 261 289 296 298 190 230 169 173 191 190
328 323 291 180 143 124 78 232 254 226 349 350 278 23 0 298 35 36 268 244 225 189 155 218 306 230 277 141 282 154 177 75 9 129 229 278 278 238 287 272 177 202 208 220 187
339 0 347 157 148 51 154 226 261 263 259 308 250 289 239 290 227 247 219 286 174 318 167 138 132 263 7 208 226 337 251 54 123 127 156 175 263 221 241 236 254 253 225 294 297
354 27 59 157 53 41 165 200 272 289 281 242 240 199 237 202 279 263 205 222 306 165 177 199 165 223 225 264 286 191 7 134 136 245 252 149 266 253 256 239 222 253 271 254 256
0 277 78 209 81 314 303 289 240 275 249 224 254 223 209 214 30 230 268 279 309 18 248 182 216 273 320 349 357 92 171 141 136 88 202 141 256 273 291 276 232 226 195 226 261
17 19 327 44 103 120 357 290 315 271 261 234 258 200 175 196 195 277 323 293 330 355 87 107 133 164 205 193 164 20 333 106 107 108 180 221 269 271 247 235 240 237 237 176 193
41 341 180 314 337 343 266 319 328 349 316 339 339 356 242 286 25 28 268 321 326 343 4 86 72 0 143 145 174 48 4 338 192 219 166 273 210 232 219 215 222 227 125 148 184
46 25 352 292 312 323 353 3 318 333 266 308 19 326 75 88 151 266 236 114 0 323 6 356 35 345 35 337 56 78 34 42 49 342 301 304 249 7 327 318 299 235 182 173 197
350 0 96 296 336 17 42 330 317 342 296 295 308 340 21 358 297 229 213 222 217 282 341 46 87 35 311 356 30 22 335 18 131 275 244 3 304 313 312 278 256 266 230 215 185